Flag for Japan Weather past 2 weeks in Yokosuka, Japan

Now
91 °F

Passing clouds.


Feels Like: 99 °F
Forecast: 80 / 89 °F
Wind: 12 mph from South

Location: Tokyo International Airport

Current Time: Aug 2, 2014 at 2:17:48 PM

Latest Report: Aug 2, 2014 at 1:30 PM


Visibility: N/A

Pressure: 29.77 "Hg

Humidity: 52%

Dew point: 72 °F

Location of YokosukaLocation

Historic Weather in Yokosuka — Graph

°F

Yokosuka temperature yesterday

Maximum temperature yesterday: 90 °F (at 2:00 PM)
Minimum temperature yesterday: 79 °F (at 2:00 AM)
Average temperature yesterday: 83 °F

Past Weeks' High & Low Weather Summary

 TemperatureHumidityPressure
High91 °F (Jul 24, 4:00 PM)100% (Jul 26, 5:00 AM)30.04 "Hg (Jul 26, 5:00 AM)
Low72 °F (Jul 19, 2:00 AM)49% (Jul 29, 3:30 PM)29.53 "Hg (Jul 27, 1:30 PM)
Average81 °F77%29.82 "Hg
* Reported Jul 18 1:00 PM — Aug 2 1:00 PM, Yokosuka, Weather by CustomWeather, © 2014

Note: Actual official high and low records may vary slightly from our data, if they occured in-between our weather recording intervals... More about our weather records

Advertising

Yokosuka weather history for previous 24 hours

 ConditionsComfort  
Time TempWeatherWind HumidityBarometerVisibility
1:00 PM
Aug 2
91 °FPassing clouds.13 mph56%29.80 "HgN/A
12:30 PM91 °FPassing clouds.10 mph56%29.80 "HgN/A
12:00 PM90 °FPassing clouds.12 mph55%29.80 "HgN/A
11:30 AM90 °FScattered clouds.12 mph55%29.80 "HgN/A
11:00 AM90 °FPartly sunny.12 mph63%29.83 "HgN/A
10:30 AM88 °FScattered clouds.10 mph66%29.83 "HgN/A
10:00 AM86 °FScattered clouds.8 mph70%29.83 "HgN/A
9:30 AM86 °FPartly sunny.6 mph70%29.83 "HgN/A
9:00 AM86 °FPartly sunny.7 mph75%29.83 "HgN/A
8:30 AM86 °FPartly sunny.9 mph75%29.83 "HgN/A
8:00 AM84 °FPartly sunny.5 mph74%29.83 "HgN/A
7:30 AM82 °FPartly sunny.2 mph79%29.83 "HgN/A
7:00 AM82 °FPartly sunny.3 mph79%29.83 "HgN/A
6:30 AM82 °FPartly sunny.3 mph74%29.83 "HgN/A
6:00 AM81 °FPartly sunny.3 mph84%29.83 "HgN/A
5:30 AM79 °FPartly sunny.6 mph89%29.83 "HgN/A
5:00 AM79 °FPartly sunny.5 mph89%29.83 "HgN/A
4:30 AM79 °FPassing clouds.2 mph89%29.83 "HgN/A
4:00 AM79 °FPassing clouds.3 mph89%29.83 "HgN/A
3:30 AM79 °FPassing clouds.3 mph89%29.83 "HgN/A
3:00 AM81 °FPassing clouds.7 mph84%29.83 "HgN/A
2:30 AM81 °FPassing clouds.9 mph84%29.83 "HgN/A
2:00 AM81 °FPassing clouds.7 mph84%29.80 "HgN/A
1:30 AM81 °FPassing clouds.5 mph79%29.80 "HgN/A
1:00 AM81 °FPassing clouds.1 mph79%29.83 "HgN/A
12:30 AM82 °FPassing clouds.7 mph70%29.83 "HgN/A
12:00 AM82 °FPartly cloudy.13 mph70%29.83 "HgN/A
11:30 PM
Aug 1
81 °FPartly cloudy.1 mph79%29.83 "HgN/A
11:00 PM82 °FPassing clouds.8 mph84%29.80 "HgN/A
10:30 PM82 °FScattered showers. Partly cloudy.12 mph79%29.80 "HgN/A
10:00 PM82 °FSprinkles. Partly cloudy.9 mph79%29.86 "HgN/A
9:30 PM84 °FSprinkles. Partly cloudy.12 mph79%29.86 "HgN/A
9:00 PM84 °FSprinkles. Passing clouds.12 mph74%29.86 "HgN/A
8:30 PM82 °FThunderstorms. Partly cloudy.14 mph84%29.86 "HgN/A
8:00 PM82 °FPassing clouds.17 mph84%29.86 "HgN/A
7:30 PM82 °FPassing clouds.17 mph84%29.83 "HgN/A
7:00 PM82 °FPassing clouds.18 mph79%29.83 "HgN/A
6:30 PM82 °FScattered clouds.20 mph84%29.83 "HgN/A
6:00 PM82 °FPartly sunny.14 mph79%29.83 "HgN/A
5:30 PM84 °FScattered clouds.17 mph79%29.80 "HgN/A
5:00 PM84 °FPartly sunny.17 mph79%29.80 "HgN/A
4:30 PM86 °FPartly sunny.18 mph70%29.80 "HgN/A
4:00 PM88 °FPartly sunny.20 mph66%29.77 "HgN/A
3:30 PM88 °FScattered clouds.18 mph66%29.80 "HgN/A
3:00 PM88 °FPartly sunny.21 mph66%29.80 "HgN/A
2:30 PM88 °FPartly sunny.23 mph70%29.80 "HgN/A
2:00 PM90 °FPartly sunny.20 mph67%29.80 "HgN/A
Weather by CustomWeather, © 2014

See weather overviewHow to use our weather pages